EW6644 Kerkyra GR current weather conditions

sailwx.info

Wind from 336 at 1 knots gusting 4

Air temperature 13.9° C
Dewpoint 10.3° C

Last reported at 2019-Dec-08 19:58 UTC.
Time now 2019-Dec-08 20:44 UTC

Location: N 39°41' E 019°44'.
View on Google Maps.

See reports from other nearby stations

  
Tides and Currents Weather Stations Pressure Air Temp Water Temp Dewpoint Dewpoint Depression Visibility Wind Speed Wind Dir Waves Ship Positions
date/time (UTC)wind fromknots sea level pressurealtimeterstation pressurevisibilityair tempwater tempwave heightnotes
2019-Dec-08 19:58 336 1 gusting 4 13.9
2019-Dec-08 19:49 344 0 gusting 5 13.9
2019-Dec-08 19:40 352 0 gusting 3 13.9
2019-Dec-08 19:31 325 0 gusting 6 13.9
2019-Dec-08 19:22 340 1 gusting 4 13.9
2019-Dec-08 19:13 360 1 gusting 5 13.9
2019-Dec-08 19:04 356 2 gusting 6 13.9
2019-Dec-08 18:55 341 2 gusting 6 13.9
2019-Dec-08 18:46 319 2 gusting 6 13.9
2019-Dec-08 18:37 328 2 gusting 6 13.9
2019-Dec-08 18:28 345 2 gusting 7 13.9
2019-Dec-08 18:19 339 1 gusting 6 13.9
2019-Dec-08 18:10 337 1 gusting 5 13.3
2019-Dec-08 18:01 359 1 gusting 6 13.3
2019-Dec-08 17:52 348 1 gusting 6 13.3
2019-Dec-08 17:43 356 1 gusting 5 13.3
2019-Dec-08 17:34 356 1 gusting 4 13.9
2019-Dec-08 17:25 344 1 gusting 3 13.9
2019-Dec-08 17:16 360 1 gusting 6 13.9
2019-Dec-08 17:07 358 2 gusting 5 13.9
2019-Dec-08 16:58 006 3 gusting 6 13.9
2019-Dec-08 16:49 355 3 gusting 6 13.9
2019-Dec-08 16:40 353 3 gusting 7 13.9
2019-Dec-08 16:31 358 4 gusting 7 13.9
2019-Dec-08 16:22 349 3 gusting 6 13.9
2019-Dec-08 16:13 360 1 gusting 6 13.9
2019-Dec-08 16:04 345 1 gusting 3 13.9
2019-Dec-08 15:55 334 0 gusting 5 13.9
2019-Dec-08 15:46 351 2 gusting 6 14.4
2019-Dec-08 15:37 339 1 gusting 4 14.4
2019-Dec-08 15:28 343 0 gusting 3 14.4
2019-Dec-08 15:19 344 0 gusting 3 14.4
2019-Dec-08 15:10 356 1 gusting 3 15.0
2019-Dec-08 15:01 337 1 gusting 6 15.6
2019-Dec-08 14:52 345 1 gusting 6 15.6
2019-Dec-08 14:43 333 0 gusting 6 15.6
2019-Dec-08 14:34 340 2 gusting 6 15.6
2019-Dec-08 14:25 347 3 gusting 6 16.1
2019-Dec-08 14:16 346 1 gusting 6 16.1
2019-Dec-08 14:07 344 2 gusting 6 16.1
2019-Dec-08 13:58 342 1 gusting 6 16.1
2019-Dec-08 13:49 357 2 gusting 7 16.1
2019-Dec-08 13:40 003 2 gusting 7 16.1
2019-Dec-08 13:31 331 0 gusting 6 16.1
2019-Dec-08 13:22 035 0 gusting 3 16.7
2019-Dec-08 13:13 005 2 gusting 8 16.7
2019-Dec-08 13:04 006 2 gusting 7 17.2
2019-Dec-08 12:55 349 1 gusting 7 17.2
2019-Dec-08 12:46 319 0 gusting 5 17.8
2019-Dec-08 12:37 343 17.8
2019-Dec-08 12:28 326 0 gusting 4 17.8
2019-Dec-08 12:19 043 0 gusting 3 18.3
2019-Dec-08 12:10 330 18.3
2019-Dec-08 12:01 18.9
2019-Dec-08 11:52 299 18.9
2019-Dec-08 11:43 324 18.9
2019-Dec-08 11:34 305 0 gusting 6 18.9
2019-Dec-08 11:25 306 0 gusting 3 18.9
2019-Dec-08 11:16 042 0 gusting 3 19.4
2019-Dec-08 11:07 135 0 gusting 3 19.4
2019-Dec-08 10:58 313 19.4
2019-Dec-08 10:49 334 0 gusting 4 19.4
2019-Dec-08 10:40 345 0 gusting 3 18.9
2019-Dec-08 10:31 344 1 gusting 6 18.9
2019-Dec-08 10:22 014 0 gusting 6 18.9
2019-Dec-08 10:13 341 0 gusting 3 18.9
2019-Dec-08 10:04 346 0 gusting 3 18.3
2019-Dec-08 09:55 325 0 gusting 3 18.3
2019-Dec-08 09:46 010 2 gusting 8 17.8
2019-Dec-08 09:37 006 2 gusting 6 17.8
2019-Dec-08 09:28 029 2 gusting 6 17.8
2019-Dec-08 09:19 325 1 gusting 6 17.8
2019-Dec-08 09:10 355 2 gusting 5 17.8
2019-Dec-08 09:01 321 1 gusting 4 18.3
2019-Dec-08 08:52 309 1 gusting 4 17.8
2019-Dec-08 08:39 302 2 gusting 7 17.2
2019-Dec-08 08:30 308 1 gusting 6 17.2
2019-Dec-08 08:21 315 16.7
2019-Dec-08 08:12 315 16.7
2019-Dec-08 08:03 16.7
2019-Dec-08 07:54 16.1
2019-Dec-08 07:45 360 16.1
2019-Dec-08 07:36 360 16.1
2019-Dec-08 07:27 16.1
2019-Dec-08 07:18 15.6
2019-Dec-08 07:09 15.0
2019-Dec-08 07:00 14.4
2019-Dec-08 06:51 13.9
2019-Dec-08 06:42 13.3
2019-Dec-08 06:33 13.3
2019-Dec-08 06:24 12.8
2019-Dec-08 06:15 12.8
2019-Dec-08 06:06 12.8
2019-Dec-08 05:57 180 12.8
2019-Dec-08 05:48 315 12.8
2019-Dec-08 05:39 305 13.3
2019-Dec-08 05:30 339 13.3
2019-Dec-08 05:21 306 0 gusting 3 13.3
2019-Dec-08 05:12 296 0 gusting 3 13.3
2019-Dec-08 05:03 293 0 gusting 2 13.3
2019-Dec-08 04:54 304 13.3
2019-Dec-08 04:45 13.3
2019-Dec-08 04:36 12.8
2019-Dec-08 04:27 315 12.8
2019-Dec-08 04:18 12.8
2019-Dec-08 04:09 12.8
2019-Dec-08 04:00 292 12.8
2019-Dec-08 03:51 292 12.8
2019-Dec-08 03:42 292 13.3
2019-Dec-08 03:33 348 13.3
2019-Dec-08 03:24 292 13.3
2019-Dec-08 03:15 292 13.3
2019-Dec-08 03:06 360 13.9
2019-Dec-08 02:57 298 13.9
2019-Dec-08 02:48 337 13.9
2019-Dec-08 02:39 305 13.9
2019-Dec-08 02:30 299 13.9
2019-Dec-08 02:21 313 13.3
2019-Dec-08 02:12 315 13.3
2019-Dec-08 02:03 326 13.3
2019-Dec-08 01:54 315 13.3
2019-Dec-08 01:45 13.3
2019-Dec-08 01:36 13.3
2019-Dec-08 01:27 13.3
2019-Dec-08 01:18 13.3
2019-Dec-08 01:09 13.3
2019-Dec-08 01:00 13.3
2019-Dec-08 00:51 247 13.3
2019-Dec-08 00:42 247 13.3
2019-Dec-08 00:33 13.3
2019-Dec-08 00:24 213 13.9
2019-Dec-08 00:15 296 0 gusting 4 13.3
2019-Dec-08 00:06 13.3
2019-Dec-07 23:57 13.3
2019-Dec-07 23:48 247 13.3
2019-Dec-07 23:39 13.3
2019-Dec-07 23:30 13.3
2019-Dec-07 23:21 13.3
2019-Dec-07 23:12 13.3
2019-Dec-07 23:03 284 0 gusting 4 13.9
2019-Dec-07 22:54 313 13.3
2019-Dec-07 22:45 247 13.3
2019-Dec-07 22:36 303 13.3
2019-Dec-07 22:27 286 13.3
2019-Dec-07 22:18 297 13.3
2019-Dec-07 22:09 247 13.3
2019-Dec-07 22:00 234 13.3
2019-Dec-07 21:51 211 13.3
2019-Dec-07 21:42 135 13.3
2019-Dec-07 21:33 135 13.3
2019-Dec-07 21:24 13.3
2019-Dec-07 21:15 13.3
2019-Dec-07 21:06 135 13.3
2019-Dec-07 20:57 135 13.3
2019-Dec-07 20:48 140 13.3
2019-Dec-07 20:39 206 13.3
2019-Dec-07 20:30 13.3
2019-Dec-07 20:21 13.3
2019-Dec-07 20:12 135 13.3
2019-Dec-07 20:03 191 13.9
2019-Dec-07 19:54 188 0 gusting 4 13.3
2019-Dec-07 19:45 056 0 gusting 3 13.3
2019-Dec-07 19:36 13.3
2019-Dec-07 19:27 090 13.3
2019-Dec-07 19:18 066 13.3
2019-Dec-07 19:09 13.3
2019-Dec-07 19:00 13.3
2019-Dec-07 18:51 180 13.9
2019-Dec-07 18:42 135 13.9
2019-Dec-07 18:33 150 13.9
2019-Dec-07 18:24 149 13.9
2019-Dec-07 18:15 247 13.9
2019-Dec-07 18:06 180 13.9
2019-Dec-07 17:57 181 0 gusting 4 14.4
2019-Dec-07 17:48 190 0 gusting 6 14.4
2019-Dec-07 17:39 184 13.9
2019-Dec-07 17:30 062 14.4
2019-Dec-07 17:21 127 13.9
2019-Dec-07 17:12 151 14.4
2019-Dec-07 17:03 315 14.4
2019-Dec-07 16:54 294 14.4
2019-Dec-07 16:45 267 14.4
2019-Dec-07 16:36 173 0 gusting 3 14.4
2019-Dec-07 16:27 300 14.4
2019-Dec-07 16:18 14.4
2019-Dec-07 16:09 197 0 gusting 3 14.4
2019-Dec-07 16:00 182 2 gusting 6 14.4
2019-Dec-07 15:51 178 1 gusting 5 14.4
2019-Dec-07 15:42 174 0 gusting 3 14.4
2019-Dec-07 15:33 168 1 gusting 5 15.0
2019-Dec-07 15:24 172 1 gusting 6 15.0
2019-Dec-07 15:15 163 1 gusting 4 15.0
2019-Dec-07 15:06 191 2 gusting 5 15.6
2019-Dec-07 14:57 177 2 gusting 5 15.6
2019-Dec-07 14:48 180 2 gusting 6 15.6
2019-Dec-07 14:39 167 1 gusting 6 15.6
2019-Dec-07 14:30 217 0 gusting 3 15.6
2019-Dec-07 14:21 090 0 gusting 3 15.6
2019-Dec-07 14:12 133 2 gusting 9 15.6
2019-Dec-07 14:03 155 4 gusting 8 15.6
2019-Dec-07 13:54 168 4 gusting 9 15.6
2019-Dec-07 13:45 147 3 gusting 9 16.1
2019-Dec-07 13:36 156 4 gusting 11 16.1
2019-Dec-07 13:27 128 3 gusting 6 16.1
2019-Dec-07 13:18 069 1 gusting 6 16.1
2019-Dec-07 13:09 098 4 gusting 9 16.1
2019-Dec-07 13:00 159 4 gusting 9 16.7
2019-Dec-07 12:51 125 2 gusting 9 16.7
2019-Dec-07 12:42 360 5 gusting 16 16.7
2019-Dec-07 12:33 089 4 gusting 12 16.7
2019-Dec-07 12:24 020 3 gusting 7 16.7
2019-Dec-07 12:15 014 3 gusting 8 16.7
2019-Dec-07 12:06 329 3 gusting 9 17.2
2019-Dec-07 11:57 013 5 gusting 13 16.7
2019-Dec-07 11:48 026 5 gusting 14 17.2
2019-Dec-07 11:39 336 4 gusting 12 17.8
2019-Dec-07 11:30 334 4 gusting 16 17.8
2019-Dec-07 11:21 341 3 gusting 9 17.8
2019-Dec-07 11:12 037 3 gusting 12 17.8
2019-Dec-07 11:03 360 3 gusting 9 17.8
2019-Dec-07 10:54 037 4 gusting 14 17.8
2019-Dec-07 10:45 322 4 gusting 9 17.8
2019-Dec-07 10:36 354 3 gusting 10 17.2
2019-Dec-07 10:27 330 2 gusting 9 17.2
2019-Dec-07 10:18 021 4 gusting 9 17.8
2019-Dec-07 10:09 112 3 gusting 8 17.8
2019-Dec-07 10:00 060 4 gusting 12 17.8
2019-Dec-07 09:51 131 3 gusting 11 17.2
2019-Dec-07 09:42 294 3 gusting 12 17.2
2019-Dec-07 09:33 015 3 gusting 7 17.2
2019-Dec-07 09:24 104 3 gusting 9 17.2
2019-Dec-07 09:15 106 4 gusting 9 17.2
2019-Dec-07 09:06 327 1 gusting 6 17.2
2019-Dec-07 08:57 067 3 gusting 9 17.2
2019-Dec-07 08:48 108 3 gusting 9 17.8
2019-Dec-07 08:39 075 2 gusting 9 17.8
2019-Dec-07 08:30 108 1 gusting 9 17.8
2019-Dec-07 08:21 092 1 gusting 5 17.2
2019-Dec-07 08:12 028 2 gusting 8 17.2
2019-Dec-07 08:03 037 3 gusting 11 16.7
2019-Dec-07 07:54 334 1 gusting 5 16.7
2019-Dec-07 07:45 089 1 gusting 6 16.7
2019-Dec-07 07:36 004 3 gusting 13 16.1
2019-Dec-07 07:27 358 2 gusting 9 16.1
2019-Dec-07 07:18 064 1 gusting 7 16.1
2019-Dec-07 07:09 036 1 gusting 7 16.1
2019-Dec-07 07:00 117 0 gusting 6 16.1
2019-Dec-07 06:51 137 3 gusting 6 15.6
2019-Dec-07 06:42 142 1 gusting 6 15.6
2019-Dec-07 06:33 146 1 gusting 5 15.0
2019-Dec-07 06:24 128 0 gusting 5 15.0
2019-Dec-07 06:15 316 0 gusting 3 14.4
2019-Dec-07 06:06 034 0 gusting 6 14.4
2019-Dec-07 05:57 315 0 gusting 3 15.0
2019-Dec-07 05:48 315 0 gusting 6 15.0
2019-Dec-07 05:39 315 14.4
2019-Dec-07 05:30 315 15.0
2019-Dec-07 05:21 180 15.0
2019-Dec-07 05:12 277 0 gusting 3 15.0
2019-Dec-07 05:03 007 1 gusting 4 15.6
2019-Dec-07 04:54 207 1 gusting 6 15.6
2019-Dec-07 04:45 196 1 gusting 6 15.6
2019-Dec-07 04:36 214 2 gusting 6 15.6
2019-Dec-07 04:27 163 3 gusting 6 15.6
2019-Dec-07 04:18 169 1 gusting 5 15.0
2019-Dec-07 04:09 136 0 gusting 4 15.0
2019-Dec-07 04:00 159 15.0
2019-Dec-07 03:51 311 15.0
2019-Dec-07 03:42 235 15.0
2019-Dec-07 03:33 315 15.0
2019-Dec-07 03:24 15.0
2019-Dec-07 03:15 15.0
2019-Dec-07 03:06 15.0
2019-Dec-07 02:57 15.0
2019-Dec-07 02:48 15.0
2019-Dec-07 02:39 15.0
2019-Dec-07 02:30 15.0
2019-Dec-07 02:21 247 15.0
2019-Dec-07 02:12 15.0
2019-Dec-07 02:03 15.0
2019-Dec-07 01:54 15.0
2019-Dec-07 01:45 154 15.0
2019-Dec-07 01:36 169 1 gusting 6 15.0
2019-Dec-07 01:27 142 0 gusting 3 15.0
2019-Dec-07 01:18 15.0
2019-Dec-07 01:09 135 15.0
2019-Dec-07 01:00 15.0
2019-Dec-07 00:51 15.0
2019-Dec-07 00:42 15.0
2019-Dec-07 00:33 15.0
2019-Dec-07 00:24 15.0
2019-Dec-07 00:15 15.0
2019-Dec-07 00:06 15.0
2019-Dec-06 23:57 15.0
2019-Dec-06 23:48 15.0
2019-Dec-06 23:39 15.0
2019-Dec-06 23:30 247 15.0
2019-Dec-06 23:21 282 15.0
2019-Dec-06 23:12 297 0 gusting 4 15.0
2019-Dec-06 23:03 318 0 gusting 5 15.0
2019-Dec-06 22:54 281 15.0
2019-Dec-06 22:45 15.0
2019-Dec-06 22:36 135 15.0
2019-Dec-06 22:27 191 0 gusting 3 15.0
2019-Dec-06 22:18 141 0 gusting 4 15.0
2019-Dec-06 22:09 161 1 gusting 4 15.0
2019-Dec-06 22:00 154 0 gusting 3 15.0
2019-Dec-06 21:51 126 15.0
2019-Dec-06 21:42 143 0 gusting 3 15.0
2019-Dec-06 21:33 151 0 gusting 3 15.0
2019-Dec-06 21:24 136 1 gusting 6 15.0
2019-Dec-06 21:15 117 1 gusting 6 15.0
2019-Dec-06 21:06 127 2 gusting 7 15.0
2019-Dec-06 20:57 151 3 gusting 7 15.0
2019-Dec-06 20:48 138 3 gusting 7 15.0
2019-Dec-06 20:39 135 3 gusting 6 15.0
2019-Dec-06 20:30 154 2 gusting 6 15.0
2019-Dec-06 20:21 157 2 gusting 5 15.0
2019-Dec-06 20:12 173 2 gusting 5 15.0
2019-Dec-06 20:03 148 2 gusting 4 15.0